Vorticity
6 4 6 9 11 13 13 12 9 9 7 6 9 7 9 10 7 6 6 6 6 7 7 8 7 4 5 9 5 5 7 7 6 4 3 4 4 3 4 5 2 1 5 2 2 4 3
8 6 4 5 9 12 11 11 11 10 10 8 8 9 9 10 8 5 7 8 9 7 8 9 9 6 6 6 5 8 6 5 6 5 4 6 4 4 5 5 4 3 2 4 3 5 6
6 7 6 6 9 8 9 10 10 9 9 11 11 12 10 7 5 7 9 8 9 9 9 8 6 7 6 7 5 1 5 1 3 7 6 6 6 7 8 6 5 6 6 4 5 3 3
7 6 7 5 2 10 10 9 9 10 8 9 8 5 5 6 9 9 10 8 9 8 7 7 5 7 8 6 5 3 5 13 6 7 11 8 4 3 5 9 8 7 5 4 5 5 2
7 4 2 7 6 13 4 6 5 6 7 6 8 8 9 9 9 8 5 6 9 10 10 10 9 6 4 6 4 10 4 10 8 3 9 10 8 9 10 7 6 4 4 5 6 3 4
4 10 6 1 5 14 12 4 7 6 9 8 8 8 8 10 10 12 10 8 9 6 9 7 6 7 2 10 12 6 8 6 10 9 8 9 7 5 5 6 6 10 8 4 1 5 12
2 1 4 -0 5 6 13 6 9 6 8 5 8 8 6 8 9 9 5 5 7 7 6 7 8 14 4 3 2 8 10 8 7 7 9 7 5 6 9 9 5 6 7 8 7 8 12
1 4 -6 16 4 12 10 3 9 7 6 3 6 6 6 13 7 9 8 7 8 9 12 9 5 10 2 6 9 1 4 7 8 8 5 6 7 11 6 10 9 10 10 15 21 27 28
-2 13 6 -2 10 11 15 4 7 10 6 4 8 2 -4 12 6 9 11 8 6 6 7 6 20 1 9 7 4 7 7 5 6 5 7 8 6 5 9 7 13 17 21 22 24 25 23
7 5 -3 12 9 11 11 12 8 10 11 2 0 3 -3 13 -2 8 8 7 8 8 10 21 2 11 7 5 7 7 8 6 8 7 11 4 6 8 10 12 15 24 21 21 18 23 27
6 1 11 6 -3 13 12 13 6 9 12 14 14 4 2 8 5 1 5 8 5 9 -6 -4 9 7 4 6 5 7 6 4 5 9 9 5 10 9 12 15 18 15 16 17 16 18 21
5 10 10 1 10 2 13 11 7 11 10 20 9 6 3 6 4 4 9 6 10 6 11 9 3 5 8 4 3 6 10 6 5 12 12 10 11 14 15 22 18 20 15 14 21 35 28
5 14 -1 -2 -0 7 12 12 5 9 14 10 3 7 2 3 3 5 9 7 9 9 7 4 7 7 7 4 6 8 5 11 9 4 8 18 15 12 16 20 18 19 17 19 31 16 21
16 20 6 9 6 2 5 17 4 9 11 3 4 4 4 8 4 8 6 6 9 6 7 8 4 6 8 6 7 4 3 8 8 8 6 12 22 17 17 14 15 14 21 23 11 7 9
11 1 8 8 4 4 10 16 9 9 10 9 7 5 7 4 7 6 7 8 6 7 5 7 3 5 8 6 10 5 6 9 6 8 15 14 27 16 16 16 14 14 17 16 9 5 3
1 20 11 1 0 16 11 11 9 7 5 8 5 6 6 4 5 6 4 5 6 5 6 7 5 10 8 8 8 8 10 11 10 12 12 11 16 13 13 15 18 21 14 15 10 6 7
14 13 14 14 -2 15 12 14 10 7 8 9 8 6 4 7 5 5 8 7 10 6 5 9 6 7 8 6 7 7 5 9 9 13 11 11 14 15 13 16 18 21 17 11 11 7 13
8 7 10 7 3 12 12 8 7 4 9 8 1 9 4 4 10 6 1 6 9 8 7 5 9 8 9 7 7 11 12 14 13 11 9 12 11 12 14 16 17 17 15 15 15 7 11
-3 8 20 11 14 12 9 11 8 3 6 8 4 6 6 6 8 2 6 8 7 7 8 6 9 9 10 8 12 11 9 14 10 10 10 10 11 11 12 12 18 16 21 20 8 6 -1
21 1 -22 22 12 15 9 11 9 0 1 12 3 5 4 5 2 1 7 8 7 6 8 8 9 9 10 9 11 8 9 15 11 10 11 12 12 11 12 12 13 15 15 15 18 12 9
7 -2 11 2 24 11 11 6 7 0 9 4 7 6 6 -1 2 1 4 8 8 8 9 10 9 10 8 8 11 11 12 12 11 11 10 11 12 11 12 15 15 14 15 14 16 16 19
7 -17 8 13 16 15 6 4 6 6 8 5 5 6 3 0 0 1 3 7 9 8 12 11 11 12 10 9 9 13 13 11 10 10 9 9 9 10 9 13 17 16 17 13 13 14 18
23 -16 10 15 9 13 4 7 9 6 11 5 4 4 3 2 1 1 4 5 10 11 12 11 10 12 12 6 13 11 11 10 9 11 10 10 9 11 8 9 14 17 14 14 15 18 13
8 -0 13 10 12 7 8 6 3 6 3 3 3 4 5 2 1 1 8 11 10 13 12 12 11 12 8 10 12 10 13 10 9 12 10 8 9 10 11 9 11 11 16 13 12 13 15
8 12 27 4 2 10 5 6 3 5 10 7 3 3 3 2 2 4 8 11 13 12 15 10 10 11 12 10 13 10 10 9 11 10 9 9 8 8 9 11 12 10 12 15 13 11 12
-11 31 18 1 5 6 8 8 11 5 3 3 4 6 2 3 0 5 10 17 9 13 14 12 10 12 10 8 11 13 9 13 10 12 8 10 9 10 9 9 11 14 15 13 12 7 11
3 21 11 3 6 2 3 0 6 6 7 5 0 7 2 4 3 7 16 10 17 15 12 14 11 12 9 12 12 12 11 11 10 8 7 7 8 9 8 8 10 9 12 13 13 11 15
4 14 10 3 11 1 4 8 9 3 5 8 7 4 3 2 6 9 14 13 15 11 12 10 13 9 13 13 14 12 12 11 11 7 6 5 6 7 8 7 10 13 9 12 10 12 14
2 4 10 9 4 1 -1 6 8 1 11 6 5 3 2 7 5 18 10 21 13 12 14 13 11 6 11 10 14 13 11 12 8 6 4 6 5 5 10 8 9 8 11 8 7 7 9
Height
5797 5796 5793 5791 5790 5788 5786 5784 5783 5781 5779 5777 5776 5774 5772 5770 5769 5766 5764 5762 5760 5758 5756 5754 5752 5751 5750 5749 5748 5745 5744 5742 5741 5739 5737 5736 5734 5732 5731 5730 5728 5722 5724 5720 5718 5718 5718
5794 5793 5792 5790 5787 5785 5784 5781 5779 5777 5774 5773 5771 5769 5768 5766 5765 5762 5760 5758 5755 5753 5751 5749 5748 5746 5746 5744 5742 5740 5738 5736 5734 5732 5731 5729 5727 5724 5723 5721 5717 5713 5709 5709 5706 5704 5700
5791 5790 5789 5787 5785 5783 5781 5779 5776 5774 5771 5768 5767 5764 5763 5762 5759 5757 5755 5753 5751 5749 5746 5745 5742 5741 5741 5738 5736 5734 5732 5730 5727 5725 5723 5721 5719 5716 5712 5710 5707 5703 5700 5697 5694 5689 5685
5788 5787 5786 5784 5781 5781 5778 5776 5773 5771 5768 5765 5764 5761 5759 5757 5754 5753 5750 5748 5746 5743 5742 5740 5737 5735 5734 5732 5729 5728 5724 5722 5720 5718 5716 5712 5709 5706 5702 5700 5696 5692 5688 5683 5680 5676 5671
5783 5782 5781 5780 5778 5775 5775 5772 5770 5767 5765 5762 5760 5758 5755 5753 5750 5748 5746 5743 5741 5738 5737 5735 5733 5730 5729 5725 5723 5721 5719 5715 5710 5708 5704 5701 5697 5695 5691 5687 5681 5676 5671 5666 5661 5656 5653
5777 5776 5776 5775 5774 5772 5771 5769 5766 5763 5762 5759 5756 5754 5751 5749 5746 5743 5741 5739 5736 5734 5731 5729 5727 5726 5723 5720 5716 5712 5711 5708 5704 5700 5696 5691 5686 5681 5676 5672 5665 5658 5652 5645 5638 5635 5627
5774 5772 5771 5770 5769 5767 5765 5765 5762 5759 5757 5755 5753 5751 5749 5744 5742 5739 5737 5735 5732 5731 5727 5724 5720 5718 5714 5712 5711 5707 5701 5697 5692 5686 5680 5674 5670 5664 5659 5651 5644 5637 5630 5622 5613 5602 5596
5770 5768 5767 5765 5763 5761 5760 5760 5759 5755 5752 5751 5749 5747 5745 5741 5738 5735 5732 5729 5726 5723 5721 5718 5715 5712 5709 5704 5700 5696 5691 5688 5682 5677 5671 5664 5656 5648 5640 5633 5623 5612 5603 5593 5584 5576 5565
5765 5764 5761 5759 5758 5755 5754 5753 5752 5750 5748 5746 5744 5742 5741 5738 5734 5730 5726 5723 5720 5717 5714 5711 5707 5704 5700 5695 5691 5687 5682 5676 5669 5662 5654 5647 5638 5628 5618 5609 5599 5586 5575 5566 5558 5553 5549
5758 5758 5757 5755 5753 5750 5748 5747 5746 5745 5742 5740 5739 5737 5735 5733 5731 5726 5721 5718 5715 5711 5708 5705 5702 5700 5693 5687 5682 5675 5668 5663 5656 5647 5637 5628 5618 5609 5599 5586 5576 5563 5553 5545 5539 5531 5528
5752 5751 5751 5749 5747 5744 5741 5740 5740 5739 5736 5734 5732 5732 5729 5726 5724 5721 5718 5713 5708 5705 5700 5698 5693 5689 5683 5678 5670 5663 5656 5648 5640 5631 5622 5612 5601 5590 5578 5567 5555 5548 5536 5527 5522 5515 5506
5745 5745 5744 5743 5741 5738 5735 5733 5733 5732 5730 5728 5726 5725 5723 5721 5718 5714 5710 5706 5702 5699 5693 5689 5684 5679 5673 5666 5658 5652 5645 5636 5627 5618 5606 5594 5583 5572 5562 5551 5539 5531 5524 5516 5508 5500 5494
5738 5738 5738 5736 5735 5732 5729 5728 5727 5726 5724 5722 5721 5719 5717 5715 5712 5708 5703 5700 5696 5690 5686 5681 5675 5669 5663 5656 5648 5641 5634 5624 5614 5604 5595 5583 5570 5556 5548 5541 5529 5517 5510 5500 5496 5493 5489
5730 5730 5729 5729 5727 5725 5724 5722 5721 5720 5718 5717 5715 5714 5711 5708 5705 5701 5697 5693 5687 5683 5677 5672 5666 5659 5652 5644 5637 5628 5619 5610 5599 5589 5578 5568 5560 5543 5534 5524 5516 5507 5501 5493 5485 5484 5482
5722 5723 5721 5721 5719 5718 5716 5715 5714 5714 5712 5710 5708 5706 5704 5702 5698 5694 5690 5684 5678 5673 5668 5661 5654 5648 5641 5632 5624 5615 5605 5596 5585 5575 5566 5553 5548 5535 5521 5510 5504 5499 5494 5487 5481 5480 5475
5714 5714 5714 5713 5711 5710 5709 5707 5707 5707 5706 5703 5701 5699 5696 5694 5690 5685 5681 5675 5669 5663 5657 5650 5645 5638 5629 5621 5613 5602 5593 5585 5572 5561 5551 5542 5534 5523 5516 5506 5495 5489 5486 5482 5477 5471 5467
5705 5707 5705 5704 5703 5702 5701 5699 5699 5700 5699 5697 5695 5692 5689 5686 5682 5677 5672 5667 5660 5654 5648 5642 5634 5626 5618 5609 5600 5591 5581 5573 5561 5551 5540 5531 5524 5518 5506 5498 5492 5486 5479 5475 5471 5467 5461
5698 5699 5697 5695 5695 5694 5692 5691 5692 5692 5692 5690 5687 5685 5682 5678 5675 5669 5665 5658 5651 5644 5637 5631 5623 5615 5606 5597 5589 5579 5570 5560 5550 5541 5533 5525 5515 5506 5499 5492 5485 5478 5473 5469 5465 5462 5457
5690 5691 5689 5687 5687 5686 5684 5684 5685 5684 5683 5682 5680 5677 5674 5670 5665 5661 5655 5648 5641 5634 5627 5619 5612 5604 5595 5586 5578 5568 5560 5551 5541 5532 5523 5514 5504 5498 5491 5486 5479 5472 5466 5462 5457 5453 5451
5682 5682 5681 5680 5678 5679 5677 5677 5677 5677 5675 5674 5671 5668 5665 5662 5657 5652 5645 5639 5631 5624 5616 5608 5600 5592 5584 5576 5567 5557 5548 5541 5532 5523 5515 5508 5499 5490 5482 5475 5470 5464 5458 5453 5449 5445 5441
5673 5674 5671 5672 5671 5671 5670 5669 5669 5669 5667 5666 5663 5660 5657 5652 5647 5642 5635 5628 5621 5614 5606 5598 5590 5582 5573 5565 5557 5549 5540 5533 5525 5517 5508 5500 5493 5485 5476 5469 5463 5457 5452 5446 5440 5436 5431
5664 5666 5664 5663 5662 5663 5662 5661 5661 5660 5659 5658 5654 5652 5647 5643 5637 5632 5624 5617 5610 5603 5596 5588 5579 5571 5563 5555 5547 5539 5532 5525 5518 5510 5502 5494 5487 5480 5473 5465 5458 5452 5445 5440 5434 5429 5424
5655 5657 5656 5655 5655 5654 5655 5653 5653 5652 5651 5648 5644 5641 5638 5633 5627 5621 5613 5606 5599 5591 5584 5576 5569 5562 5555 5546 5538 5532 5525 5519 5512 5504 5496 5489 5482 5475 5468 5460 5453 5447 5440 5433 5428 5423 5418
5647 5649 5647 5647 5647 5646 5647 5645 5645 5643 5641 5639 5635 5631 5627 5623 5616 5609 5602 5595 5587 5580 5572 5565 5558 5551 5545 5536 5530 5524 5517 5511 5504 5497 5489 5482 5476 5469 5462 5455 5449 5442 5434 5428 5422 5417 5412
5638 5638 5639 5639 5639 5639 5637 5636 5636 5634 5632 5629 5626 5622 5617 5611 5605 5598 5591 5584 5576 5568 5560 5552 5546 5541 5534 5527 5521 5515 5509 5503 5496 5489 5482 5475 5469 5463 5457 5450 5444 5436 5431 5424 5417 5412 5406
5628 5627 5628 5630 5630 5630 5628 5628 5627 5625 5623 5619 5616 5611 5606 5600 5595 5587 5579 5572 5564 5556 5550 5543 5536 5529 5524 5517 5511 5506 5499 5494 5488 5482 5476 5470 5463 5457 5450 5443 5437 5431 5425 5419 5413 5408 5401
5619 5619 5620 5621 5621 5620 5620 5619 5618 5616 5613 5610 5605 5600 5595 5589 5582 5575 5567 5560 5551 5545 5539 5532 5525 5520 5513 5508 5502 5497 5492 5485 5480 5474 5469 5464 5457 5450 5443 5437 5432 5425 5419 5413 5408 5405 5396
5609 5611 5612 5612 5612 5611 5611 5610 5608 5606 5603 5599 5594 5589 5584 5577 5570 5562 5555 5547 5539 5533 5527 5521 5515 5509 5503 5498 5493 5488 5483 5478 5473 5467 5462 5456 5450 5444 5438 5432 5427 5420 5414 5409 5404 5396 5390
5602 5602 5603 5603 5603 5603 5602 5600 5598 5595 5592 5588 5583 5577 5571 5565 5558 5551 5542 5535 5528 5522 5516 5509 5505 5498 5493 5488 5483 5478 5474 5469 5464 5460 5454 5449 5444 5438 5432 5426 5419 5413 5407 5402 5396 5390 5384